Weather Roundup
Issued by NWS

Home | Current Version | Previous Version | Text Only | Print | Product List | Glossary On
Versions: 1 2 3 4 5 6 7 8 9 10 11 12 13 14 15 16 17 18 19 20 21 22 23 24 25 26 27 28 29 30 31 32 33 34 35 36 37 38 39 40 41 42 43 44 45 46 47 48 49 50
000
NZUS93 KARX 231659
HRRWXR

CURRENT HOURLY OBSERVATIONS ACROSS
MUCH OF THE UPPER MISSISSIPPI VALLEY
NATIONAL WEATHER SERVICE LA CROSSE WI
1200 PM CDT TUE MAY 23 2017


...SOUTHEAST MINNESOTA...


CITY           SKY/WX    TMP DP  RH WIND       PRES   REMARKS
ROCHESTER      LGT RAIN  50  49  96 N10       29.81F
ROCHESTER/MAYO NOT AVBL
WINONA         CLOUDY    54  48  82 CALM      29.78S
AUSTIN         CLOUDY    54  48  82 W10       29.79F
ALBERT LEA     DRIZZLE   54  46  76 N6        29.80F
DODGE CENTER   CLOUDY    54  46  76 NE8       29.80S
PRESTON        LGT RAIN  50  47  91 N9        29.79F
OWATONNA       CLOUDY    54  46  76 N7        29.81F
FARIBAULT      LGT RAIN  54  50  87 CALM      29.82S
$$

...ELSEWHERE IN MINNESOTA...


CITY           SKY/WX    TMP DP  RH WIND       PRES   REMARKS
MINNEAPOLIS    CLOUDY    58  43  57 E10G16    29.82F
INTNL FALLS    CLOUDY    50  43  77 NE13G22   29.96S
DULUTH         CLOUDY    51  46  83 E10       29.88S
RED WING       LGT RAIN  54  46  76 NE3       29.81S
REDWOOD FALLS  CLOUDY    54  45  71 VRB7      29.84F
MANKATO        LGT RAIN  50  47  89 N10       29.83S
WORTHINGTON    CLOUDY    50  45  83 N16       29.86S
FAIRMONT       LGT RAIN  49  45  86 NW12      29.83F
$$

...SOUTHWEST WISCONSIN...


CITY           SKY/WX    TMP DP  RH WIND       PRES   REMARKS
LA CROSSE      CLOUDY    58  53  84 NW8       29.75F
PRAIRIE DU CHI CLOUDY    59  49  69 W3        29.76S
BOSCOBEL       CLOUDY    61  51  70 CALM      29.75F
LONE ROCK      NOT AVBL
PLATTEVILLE    CLOUDY    57  54  89 W6        29.77S
FORT MC COY    CLOUDY    56  51  84 N9        29.77F
MAUSTON-NEW LI CLOUDY    53  51  93 N5        29.76F FOG
VIROQUA        CLOUDY    55  52  88 MISG      29.75F
WIS DELLS      CLOUDY    59  51  74 SW5       29.75F
$$

...ELSEWHERE IN WISCONSIN...


CITY           SKY/WX    TMP DP  RH WIND       PRES   REMARKS
MILWAUKEE      PTSUNNY   66  55  67 SW8       29.77F
MADISON        CLOUDY    61  51  70 SW7       29.75F
GREEN BAY      CLOUDY    54  50  86 NE15      29.81R
EAU CLAIRE     NOT AVBL
BLACK RVR FLS  CLOUDY    56  48  74 NE8       29.77S
MEDFORD        CLOUDY    51  47  85 NE10      29.81S
WAUSAU         CLOUDY    54  45  71 NE8       29.79F
WIS RAPIDS     CLOUDY    56  48  74 E12       29.79S
MARSHFIELD     CLOUDY    56  45  66 E13       29.77F
RICE LAKE      CLOUDY    54  48  80 N8        29.85S
$$

...NORTHEAST IOWA...


CITY           SKY/WX    TMP DP  RH WIND       PRES   REMARKS
WATERLOO       CLOUDY    58  49  72 W8        29.78F
DUBUQUE        CLOUDY    57  51  80 W9        29.76F
DECORAH        CLOUDY    54  50  87 NW8G15    29.77S
MASON CITY     CLOUDY    52  45  77 NW10      29.82F
CHARLES CITY   CLOUDY    55  52  88 W12       29.79F
OELWEIN        CLOUDY    59  50  72 NW9       29.77F
$$

...ELSEWHERE IN IOWA...


CITY           SKY/WX    TMP DP  RH WIND       PRES   REMARKS
DES MOINES     CLOUDY    60  45  57 NW14      29.81F
IOWA CITY      CLOUDY    60  50  69 N6        29.79F
FORT DODGE     CLOUDY    54  46  76 N7        29.83F
MARSHALLTOWN   RAIN      52  48  86 NW12G20   29.80S FOG
CEDAR RAPIDS   CLOUDY    59  51  75 NW9       29.77F
$$

...NORTHERN ILLINOIS...


CITY           SKY/WX    TMP DP  RH WIND       PRES   REMARKS
CHICAGO-OHARE  CLOUDY    61  53  75 SW8       29.78F
CHICAGO-MIDWAY LGT RAIN  62  54  74 SW5       29.79F
MOLINE           N/A    N/A N/A N/A MISG      29.76F
ROCKFORD       LGT RAIN  60  55  83 SW8       29.78F
PEORIA         LGT RAIN  57  57 100 SW3       29.79F FOG
$$

NOTE: "FAIR" INDICATES FEW OR NO CLOUDS BELOW 12,000 FEET WITH NO
SIGNIFICANT WEATHER AND/OR OBSTRUCTIONS TO VISIBILITY. WIND
SPEEDS ARE IN MILES-PER-HOUR.




USA.gov is the U.S. government's official web portal to all federal, state and local government web resources and services.